Hourly Data Report for October 04, 2017

All times are specified in Local Standard Time (LST). Add 1 hour to adjust for Daylight Saving Time where and when it is observed.

GILLAM A
MANITOBA

56°21'28.000" N
94°42'39.000" W
145.10 m
5061022
71912
YGX

Download Data

Hourly Data (October 2017)
Hourly Data Report for October 4, 2017
Temp Definition
°C
Dew Point Temp Definition
°C
Rel Hum Definition
%
Wind Dir Definition
10's deg

Wind Spd Definition
km/h
Visibility Definition
km
Stn Press Definition
kPa
Hmdx Definition


Wind Chill Definition


Weather Definition


TIME
00:00 Legend Double Dagger 3.3 0.2 80 21 14 24.1 99.73     Cloudy
01:00 Legend Double Dagger 3.7 0.1 78 21 17 24.1 99.59     LegendNANA
02:00 Legend Double Dagger 4.2 0.4 76 20 22 24.1 99.45     LegendNANA
03:00 Legend Double Dagger 4.2 0.5 77 21 23 24.1 99.30     Cloudy
04:00 Legend Double Dagger 4.2 0.4 76 21 22 24.1 99.12     LegendNANA
05:00 Legend Double Dagger 4.4 0.4 75 22 23 24.1 99.04     LegendNANA
06:00 Legend Double Dagger 4.4 0.6 77 22 19 24.1 98.95     Cloudy
07:00 Legend Double Dagger 4.5 0.9 77 23 17 24.1 98.90     LegendNANA
08:00 Legend Double Dagger 4.9 1.0 76 25 20 24.1 98.87     Rain
09:00 Legend Double Dagger 5.0 2.8 86 25 17 24.1 98.85     Cloudy
10:00 Legend Double Dagger 5.6 3.6 87 25 16 24.1 98.85     Rain
11:00 Legend Double Dagger 6.9 3.1 77 32 31 24.1 98.92     Rain
12:00 Legend Double Dagger 6.8 3.3 79 33 35 24.1 99.00     Cloudy
13:00 Legend Double Dagger 4.5 2.1 84 36 40 24.1 99.21     Rain
14:00 Legend Double Dagger 3.8 -0.7 73 35 34 24.1 99.38     LegendNANA
15:00 Legend Double Dagger 3.1 -1.1 74 34 32 24.1 99.51     Rain
16:00 Legend Double Dagger 2.1 -2.8 70 34 37 24.1 99.60     LegendNANA
17:00 Legend Double Dagger 1.9 -3.7 66 34 30 24.1 99.68     LegendNANA
18:00 Legend Double Dagger 0.9 -4.2 69 33 29 24.1 99.76     Cloudy
19:00 Legend Double Dagger 1.1 -4.9 64 30 19 24.1 99.78     LegendNANA
20:00 Legend Double Dagger 1.3 -3.9 68 30 27 24.1 99.77     LegendNANA
21:00 Legend Double Dagger 0.8 -2.5 79 32 28 24.1 99.74     Cloudy
22:00 Legend Double Dagger 1.0 -4.5 67 33 34 24.1 99.72     LegendNANA
23:00 Legend Double Dagger 0.9 -4.9 65 31 27 24.1 99.72     LegendNANA

Notes on Data Quality.

Legend

  • E = Estimated
  • M = Missing
  • NA = Not Available
  • ‡ = Partner data that is not subject to review by the National Climate Archives
Date modified: